YAOGAN-31 M

导读

YAOGAN-31 M(遥感三十一号卫星)是中国研制发射的遥感卫星,于北京时间2021年3月13日8时成功发射入轨。该卫星隶属于中国遥感卫星系列,主要用于开展空间环境探测与相关技术试验,是中国低轨遥感卫星组网建设的重要组成部分,其投入使用进一步提升了中国空间观测能力,推动航天遥感领域持续发展,也为后续同类卫星研制应用积累了宝贵经验。

Basic Information
目录编号:
47857
目录名称:
YAOGAN-31 M
国际标识:
2021-020D
轨道中心:
EARTH
卫星名称:
YAOGAN-31 M
卫星全名:
--
卫星状态:
在轨 (已飞行1922 天)
发射日期:
2021-03-13 UTC
国别 :
中国 (CN)
星等 :
--
Orbit Information
数据来源 国际轨道数据 AOE轨道数据
星历时间 2026-06-17T20:45:08+0800
5小时前
查看轨道信息
2026-06-16T06:00:00+0800
1天前
查看轨道信息
半长轴 7467.192km 7467.198km
偏心率 0.0174804 0.0175013
轨道倾角 63.407° 63.407°
近地点辐角 0.381° 0.333°
升交点赤经 257.191° 261.339°
平近点角 359.732° 98.889°
近地点 958.525km 958.375km
远地点 1219.585km 1219.747km
周期 107.028分钟 107.028分钟
每日圈数 13.454476 13.454462
Detailed Information
使用方式:
暂无
2D Orbit Map
3D Orbit Map
Orbit Altitude Analysis Chart
Orbit Inclination Analysis Chart
Orbit Comprehensive Analysis Chart
View Comprehensive Chart